Location: Madrid
(40.4000°N, 3.6830°W)
Time: 15:14:11
(UTC+02:00)

ISS - Pass Details

Date: 02 April 2020
Orbit: 416 x 423 km, 51.6° (Epoch: 02 April)

Event Time Altitude Azimuth Distance (km) Brightness Sun altitude
Rises 21:45:36 0° 311° (NW) 2,360 1.4 -12.8°
Reaches altitude 10° 21:47:51 10° 322° (NW) 1,495 -0.1 -13.2°
Maximum altitude 21:50:54 32° 28° (NNE) 747 -2.6 -13.8°
Enters shadow 21:52:19 22° 73° (ENE) 961 -2.4 -14.0°
